[[{"header":{"parameterUnit":"m.s-1","parameterCategory":1,"la1":30.2991,"la2":30.254,"lo1":-89.0895,"lo2":-89.0444,"dy":0.0017,"dx":0.0017,"nx":28,"ny":28,"refTime":"2025-05-29T03:00:00:Z","depth":0,"parameterNumber":2,"parameterNumberName":"U-component_of_WINDS"},"data":[0,0,0,0,0,0,0,0,0,0,0,0,0,0,0,0,0,0,0,0,0,0,0,0,0,0,0,0,0,0,0,0,0,0,0,0,0,0,0,0,0,0,0,0,0,0,0,0,0,0,0,0,0,0,0,0,0,0,0.0512,0.0513,0,0.0564,0.0564,0.0565,0.0628,0.0629,0.0629,0.063,0.0683,0.0684,0.0684,0,0,0,0,0,0,0,0,0,0,0,0,0,0.047,0.047,0.0512,0.0513,0.0513,0.0563,0.0564,0.0565,0.0627,0.0629,0.063,0.0631,0.0683,0.0684,0.0684,0,0,0,0,0,0,0,0,0,0,0,0,0,0.0501,0.047,0.0512,0.0551,0.0555,0.0563,0.0564,0.0565,0.0627,0.0629,0.063,0.0631,0.0683,0.0684,0.0685,0.066,0,0,0.0687,0.0687,0,0,0,0,0,0,0,0,0.0499,0.0503,0.0544,0.0548,0.0552,0.0591,0.0569,0.0597,0.0627,0.06,0.063,0.0632,0.0651,0.0655,0.0661,0.0662,0.0664,0.0687,0.0687,0.0688,0.0688,0,0,0,0,0,0,0,0.0497,0.0501,0.0532,0.0545,0.055,0.0566,0.0572,0.0574,0.0617,0.0602,0.0607,0.0612,0.0654,0.066,0.0663,0.0665,0.0687,0.0688,0.0688,0.0688,0.065,0.0649,0,0,0,0,0,0,0.0489,0.0499,0.0531,0.0534,0.0529,0.0565,0.0572,0.0577,0.0617,0.0624,0.0611,0.0615,0.0658,0.0662,0.0665,0.064,0.0688,0.0688,0.0689,0.0652,0.065,0.0648,0,0,0,0,0,0,0.0488,0.0491,0.0529,0.0518,0.0524,0.0565,0.0569,0.0577,0.0584,0.0623,0.0631,0.0609,0.066,0.0664,0.0661,0.0642,0.0689,0.0689,0.0653,0.0651,0.0649,0.0587,0,0,0,0,0,0,0.0486,0.049,0.0481,0.0517,0.0524,0.0523,0.0568,0.0577,0.0585,0.059,0.0624,0.0631,0.0661,0.0659,0.0662,0.0644,0.069,0.0655,0.0652,0.065,0.0591,0.0583,0.0577,0,0,0,0,0,0.0485,0.0461,0.048,0.0483,0.0513,0.0522,0.0526,0.0561,0.0583,0.0574,0.06,0.063,0.0644,0.0659,0.0662,0.0644,0.0657,0.0653,0.065,0.0594,0.0585,0.0577,0,0,0,0,0,0,0.0421,0.0466,0.0488,0.0475,0.0494,0.0532,0.0522,0.0549,0.0562,0.0567,0.061,0.0617,0.0609,0.0627,0.0642,0.0623,0.0655,0.0652,0.0612,0.0603,0.0596,0.0591,0.0691,0,0,0,0,0,0.0406,0.0409,0.0448,0.0433,0.0442,0.048,0.0485,0.0511,0.0532,0.054,0.0566,0.0586,0.0595,0.06,0.0611,0.0595,0.0603,0.0584,0.0577,0.0571,0.0567,0.0562,0.0554,0.0638,0.0638,0.0638,0,0,0.0374,0.0399,0.0398,0.0421,0.0439,0.0442,0.0486,0.0487,0.049,0.0541,0.0539,0.0559,0.0584,0.0575,0.0572,0.0589,0.0546,0.0566,0.0561,0.0561,0.0557,0.055,0.0542,0.0635,0.0636,0.0636,0,0,0.0317,0.0336,0.0326,0.0343,0.037,0.0396,0.0393,0.0428,0.0443,0.0442,0.0481,0.0485,0.05,0.0517,0.0527,0.0479,0.0508,0.0481,0.0443,0.0437,0.043,0.0424,0.0408,0.0401,0.0478,0.0478,0.0478,0,0.0274,0.0279,0.0317,0.0316,0.0326,0.0373,0.0364,0.0379,0.0407,0.0413,0.0432,0.0452,0.0472,0.0468,0.0457,0.0463,0.0463,0.0477,0.0428,0.0423,0.0418,0.0403,0.0396,0.0475,0.0475,0.0475,0.0476,0,0.0225,0.0228,0.0217,0.0244,0.0253,0.0247,0.0286,0.029,0.0315,0.034,0.034,0.0366,0.0383,0.0384,0.0409,0.0384,0.0394,0.042,0.0453,0.0406,0.0392,0.0387,0.047,0.0471,0.0472,0.0473,0,0,0.0128,0.0177,0.0172,0.0186,0.0219,0.0223,0.0221,0.0238,0.0241,0.026,0.026,0.0272,0.0296,0.0308,0.0336,0.033,0.0292,0.0357,0.0358,0.0344,0.0267,0.0248,0.024,0.0311,0.031,0.031,0.0265,0,0.0077,0.0075,0.0111,0.0099,0.0103,0.0149,0.0148,0.0168,0.0192,0.0199,0.0226,0.0234,0.0265,0.0273,0.027,0.0297,0.0277,0.0301,0.0312,0.0312,0.0304,0.0233,0.0211,0.0168,0.026,0.0259,0.0259,0,0.0017,0.0033,0.0021,0.0057,0.006,0.0058,0.0077,0.0084,0.011,0.0127,0.0141,0.0173,0.0174,0.0206,0.021,0.0225,0.0232,0.0247,0.0246,0.0248,0.0282,0.0233,0.0155,0.0148,0.0251,0.0251,0.0252,0,-0.0053,-0.0034,-0.0038,-0.0028,0.0013,0.0011,0.0028,0.0055,0.0064,0.0081,0.0088,0.0105,0.0114,0.0128,0.0164,0.0183,0.0163,0.0198,0.0179,0.0178,0.0171,0.0171,0.0093,0.0176,0.0176,0.0177,0.0177,0,-0.0114,-0.0122,-0.0069,-0.0071,-0.0079,-0.0037,-0.0045,-0.0023,0.0001,0.0004,0.0046,0.0048,0.0096,0.0104,0.0132,0.0132,0.0136,0.015,0.0158,0.0146,0.0144,0.0151,0.0155,0.0175,0.0175,0.0176,0.0176,0,-0.0194,-0.0158,-0.0159,-0.0119,-0.0109,-0.0117,-0.0082,-0.0082,-0.0055,-0.0051,-0.0048,-0.0006,0.0006,0.0044,0.0065,0.0085,0.0075,0.009,0.0066,0.0071,0.005,0.0051,-0.0027,-0.0035,0.0053,0.0052,0.0052,0,-0.0236,-0.0241,-0.0201,-0.0196,-0.018,-0.0173,-0.0163,-0.0121,-0.0113,-0.0083,-0.0086,-0.0071,-0.0056,-0.0039,-0.0006,0.0012,0.0027,-0.0001,0.0029,0.0019,0.0027,0.0026,0.0026,-0.0009,-0.001,-0.0011,-0.0012,0,-0.0313,-0.0295,-0.0283,-0.0265,-0.0255,-0.0239,-0.022,-0.0218,-0.017,-0.0163,-0.015,-0.0139,-0.0116,-0.0101,-0.0078,-0.0058,-0.0027,-0.0021,-0.0025,-0.0037,-0.0051,-0.0044,0.0048,-0.002,-0.0019,-0.0019,-0.0018,-0.0018,-0.0375,-0.0377,-0.0349,-0.0337,-0.0318,-0.0301,-0.0299,-0.0272,-0.026,-0.0239,-0.0214,-0.0203,-0.0175,-0.0141,-0.0124,-0.0114,-0.0098,-0.0103,-0.0104,-0.0106,-0.0112,-0.0052,-0.011,-0.011,-0.0109,-0.0109,-0.0109,0,-0.0451,-0.043,-0.0419,-0.0394,-0.0384,-0.0355,-0.0332,-0.0325,-0.0317,-0.0293,-0.0279,-0.0264,-0.0248,-0.0213,-0.0193,-0.0192,-0.0177,-0.0189,-0.0189,-0.0185,-0.0128,-0.0127,-0.0201,-0.0201,-0.0201,-0.0201,-0.0201,-0.0201,-0.0489,-0.0491,-0.0469,-0.046,-0.0439,-0.0429,-0.0418,-0.0401,-0.0382,-0.0367,-0.0353,-0.033,-0.0302,-0.0279,-0.0263,-0.0253,-0.0248,-0.0264,-0.0249,-0.0197,-0.0189,-0.018,-0.0179,-0.0263,-0.0263,-0.0307,-0.0307,-0.0307]},{"header":{"parameterUnit":"m.s-1","parameterCategory":1,"la1":30.2991,"la2":30.254,"lo1":-89.0895,"lo2":-89.0444,"dy":0.0017,"dx":0.0017,"nx":28,"ny":28,"refTime":"2025-05-29T03:00:00:Z","depth":0,"parameterNumber":3,"parameterNumberName":"V-component_of_WINDS"},"data":[0,0,0,0,0,0,0,0,0,0,0,0,0,0,0,0,0,0,0,0,0,0,0,0,0,0,0,0,0,0,0,0,0,0,0,0,0,0,0,0,0,0,0,0,0,0,0,0,0,0,0,0,0,0,0,0,0,0,2.1971,2.1972,0,2.2061,2.2062,2.2063,2.2059,2.2058,2.2056,2.2055,2.2149,2.2152,2.2156,0,0,0,0,0,0,0,0,0,0,0,0,0,2.18,2.1803,2.1971,2.1972,2.1974,2.2061,2.2062,2.2063,2.2059,2.2058,2.2056,2.2055,2.2148,2.2152,2.2156,0,0,0,0,0,0,0,0,0,0,0,0,0,2.1881,2.1804,2.1971,2.1982,2.1984,2.206,2.2062,2.2063,2.2059,2.2057,2.2056,2.2054,2.2146,2.2151,2.2157,2.2229,0,0,2.2174,2.2176,0,0,0,0,0,0,0,0,2.1876,2.1887,2.1979,2.1981,2.1984,2.2047,2.2036,2.2119,2.206,2.2031,2.2055,2.2053,2.2116,2.2124,2.2145,2.2233,2.2237,2.2174,2.2178,2.218,2.2181,0,0,0,0,0,0,0,2.187,2.1883,2.2007,2.1981,2.1983,2.1983,2.1993,2.2052,2.2083,2.2033,2.2033,2.2044,2.2117,2.214,2.2147,2.2239,2.2174,2.2179,2.2182,2.2184,2.2392,2.2394,0,0,0,0,0,0,2.1862,2.1878,2.2004,2.2009,2.1924,2.1988,2.1998,2.2028,2.2083,2.2089,2.2045,2.2043,2.2131,2.2141,2.2151,2.224,2.218,2.2185,2.2188,2.239,2.2393,2.2395,0,0,0,0,0,0,2.1858,2.1873,2.2,2.1944,2.196,2.1993,2.2027,2.2031,2.2054,2.2092,2.2097,2.2062,2.213,2.2143,2.221,2.2243,2.2188,2.2193,2.2388,2.2391,2.2394,2.2418,0,0,0,0,0,0,2.1854,2.1872,2.1899,2.1945,2.1963,2.2057,2.2029,2.2034,2.2063,2.2061,2.2109,2.2115,2.213,2.2202,2.2215,2.2249,2.2197,2.2385,2.2389,2.2393,2.2414,2.2421,2.2427,0,0,0,0,0,2.1847,2.1902,2.19,2.1915,2.1997,2.2059,2.207,2.2084,2.2066,2.2094,2.2118,2.2114,2.2237,2.2208,2.2224,2.226,2.2383,2.2388,2.2393,2.2411,2.242,2.2427,0,0,0,0,0,0,2.186,2.1908,2.1907,2.1978,2.2014,2.2058,2.2093,2.2093,2.2136,2.2133,2.215,2.2161,2.2228,2.2251,2.2218,2.2334,2.2308,2.2316,2.2316,2.2325,2.2332,2.2325,2.2201,0,0,0,0,0,2.1871,2.1916,2.1956,2.2015,2.2033,2.206,2.2088,2.2096,2.2135,2.215,2.218,2.2218,2.2266,2.2297,2.2342,2.2417,2.2429,2.245,2.2457,2.2462,2.2469,2.2512,2.2523,2.2412,2.2412,2.2411,0,0,2.1894,2.1926,2.1953,2.2018,2.2047,2.2095,2.2073,2.2124,2.216,2.2158,2.2223,2.2246,2.2291,2.2362,2.2395,2.2383,2.2503,2.2469,2.2473,2.2477,2.2518,2.2529,2.2538,2.2415,2.2414,2.2414,0,0,2.196,2.1988,2.2041,2.2071,2.2115,2.2133,2.2146,2.2191,2.2206,2.2271,2.2272,2.2315,2.2396,2.2428,2.2455,2.2535,2.2533,2.2549,2.2585,2.2626,2.2635,2.2643,2.2673,2.2683,2.2556,2.2556,2.2556,0,2.1983,2.2053,2.2068,2.2119,2.2149,2.2149,2.2204,2.2232,2.229,2.231,2.2296,2.2399,2.2429,2.2508,2.2528,2.2549,2.2565,2.2544,2.2633,2.2641,2.2648,2.2677,2.2688,2.2558,2.2558,2.2558,2.2558,0,2.208,2.2129,2.2167,2.2222,2.2255,2.2308,2.2332,2.2364,2.237,2.239,2.2457,2.2493,2.2547,2.2567,2.2573,2.2648,2.2639,2.2629,2.2603,2.266,2.2687,2.2698,2.2561,2.256,2.256,2.2559,0,0,2.2155,2.2219,2.2233,2.2259,2.2309,2.2347,2.2401,2.2453,2.2481,2.2521,2.2567,2.2636,2.2627,2.2658,2.2668,2.2704,2.2767,2.269,2.2691,2.2704,2.2854,2.2861,2.2874,2.2766,2.2769,2.277,2.285,0,2.2227,2.2321,2.2336,2.2419,2.2466,2.2468,2.2515,2.2551,2.2572,2.2615,2.2638,2.2687,2.2671,2.269,2.2726,2.2752,2.2798,2.2746,2.281,2.2813,2.2799,2.2888,2.2896,2.2969,2.2861,2.2863,2.2864,0,2.2323,2.2366,2.2453,2.2498,2.2518,2.256,2.261,2.2651,2.2693,2.2705,2.274,2.2747,2.2804,2.2775,2.2855,2.282,2.2847,2.2864,2.2867,2.2874,2.2842,2.2897,2.2993,2.3004,2.2881,2.2879,2.2878,0,2.237,2.2449,2.2512,2.2534,2.2588,2.2618,2.2642,2.2682,2.2713,2.2757,2.2778,2.2828,2.2855,2.2895,2.2915,2.2893,2.2994,2.2967,2.3007,2.3007,2.3028,2.3026,2.313,2.3045,2.3045,2.3045,2.3044,0,2.2449,2.2502,2.2534,2.2573,2.2633,2.2652,2.2711,2.2735,2.2771,2.2815,2.2821,2.2863,2.2887,2.2932,2.2949,2.3013,2.3025,2.3038,2.3042,2.3038,2.3036,2.3056,2.3051,2.3048,2.3047,2.3046,2.3046,0,2.2511,2.2534,2.2603,2.2649,2.2662,2.2705,2.2745,2.2783,2.2804,2.286,2.2875,2.2908,2.2962,2.2986,2.3053,2.3064,2.3138,2.3138,2.3123,2.3125,2.3163,2.316,2.3283,2.3301,2.3204,2.3205,2.3206,0,2.2559,2.26,2.2651,2.2681,2.2706,2.2754,2.2786,2.2806,2.2839,2.2891,2.2924,2.2978,2.3022,2.3109,2.314,2.3192,2.3193,2.3233,2.3201,2.3196,2.3195,2.3192,2.3197,2.3239,2.324,2.3241,2.3241,0,2.2643,2.2653,2.2698,2.2748,2.2786,2.2826,2.2866,2.289,2.2917,2.2954,2.3009,2.3044,2.3113,2.3167,2.3221,2.3247,2.325,2.3251,2.3263,2.326,2.325,2.3257,2.314,2.3248,2.3248,2.3247,2.3247,2.3246,2.27,2.2738,2.278,2.283,2.2862,2.29,2.2938,2.2965,2.3011,2.3068,2.3077,2.3137,2.318,2.3253,2.3281,2.3329,2.3319,2.3336,2.3341,2.3345,2.3348,2.3242,2.3339,2.3338,2.3338,2.3338,2.3338,0,2.2785,2.2812,2.2859,2.2914,2.2955,2.2953,2.2997,2.3031,2.3083,2.3123,2.3167,2.3232,2.3285,2.332,2.3375,2.3406,2.3409,2.342,2.3418,2.3424,2.3353,2.3337,2.3417,2.3417,2.3417,2.3417,2.3417,2.3417,2.2834,2.2897,2.2912,2.2993,2.302,2.3078,2.3104,2.3139,2.3171,2.3242,2.3286,2.3309,2.3348,2.3405,2.3455,2.3464,2.3484,2.3496,2.3505,2.3437,2.3429,2.3421,2.3407,2.35,2.35,2.3572,2.3573,2.3574]}]]